User: anonymous
Location: Unspecified
(0.0000°N, 0.0000°E)
Time: 11:35:59
(UTC+02:00)
Language:

ARIANE 5 DEB (SYLDA) - Orbit

View from above orbital plane
View from above orbital plane
View from above satellite
View from above satellite

Ground track
Ground track

The orbit data is extracted from the following two-line orbital elements,

1 32770U 08018D   14106.72860002  .00754014  21680-6  67926-2 0  5467
2 32770 001.4067 120.0787 5457403 309.2838 118.2830 05.01527080 67087
Epoch (UTC): 16 April 2014 17:29:11
Eccentricity: 0.5457403
inclination: 1.4067°
perigee height: 171 km
apogee height: 15906 km
right ascension of ascending node: 120.0787°
argument of perigee: 309.2838°
revolutions per day: 5.01527080
mean anomaly at epoch: 118.2830°
orbit number at epoch: 6708

The dashed part of the orbit path shows where the satellite is in the earth's shadow,  

DLR